Starlink 33957

operational
NORAD ID: 63897 Int'l Des: 2025-095 Owner: SPXS Country: US Constellation: starlink
LEOCIRCULAR

About Starlink 33957

Description loading...

Live Position

Loading 3D Globe...

Upcoming Passes

Altitude History

Altitude vs Time

uPlot chart will show altitude changes over time

Two-Line Element Set

1 63897U 25095H 26063.38882189 .00039718 00000-0 14438-2 0 9998
2 63897 42.9978 206.4510 0002105 182.2634 177.8209 15.27608076 46967
Epoch: Mar 4, 2026 • Age: 17 hours

Current Status

Altitude 488.6 km
Velocity 7.62 km/s
Sub-Earth Point -20.30°S, 123.25°E
Launch Date May 10, 2025
Age 0.8 years
Type internet

Technical Details

Classification Payload
Mass 575.00 kg
Dry Mass 530.00 kg
Total Mass 575.00 kg
Length 0.30 m
Diameter 4.10 m
Span 29.00 m
Shape Box + pan
Manufacturer SPXS
Bus Type Starlink V2MO
Phase Status In Orbit
Owner/State SPXS/US

Large Constellations

Loading constellations...